GFSGBSN_500_rhum_249.txt.gz
RH
76 72 73 65 55 54 46 42 45 46 31 31 36 35 34 43 49 49 38 25 16 11 8 7 7 8 8 10 12 12 13 12 11 9 9 8 7 7 13 17 20 23 23 20 14 9 15
75 70 72 73 56 48 41 21 14 11 9 8 9 11 19 28 25 26 37 48 51 45 27 15 10 7 6 8 11 11 12 12 12 12 11 10 9 9 13 16 20 24 26 23 17 10 15
76 80 84 63 39 34 36 24 9 8 8 7 8 10 16 21 25 32 40 43 45 45 46 51 35 16 11 8 8 10 10 11 12 12 12 12 12 12 14 16 20 25 27 27 22 11 9
51 46 41 37 32 31 26 15 13 14 16 20 21 12 21 25 36 36 38 42 40 38 40 45 47 48 25 17 12 11 12 13 13 14 14 14 14 16 16 16 19 24 26 30 27 14 8
41 46 55 55 41 27 19 17 21 28 33 35 38 31 24 39 40 40 39 39 40 38 39 42 44 53 48 34 24 18 15 14 14 14 15 16 16 17 18 17 20 22 26 27 30 24 10
44 40 35 40 43 43 37 31 31 40 48 48 49 50 46 41 46 46 42 40 40 38 46 48 43 55 56 55 44 33 26 21 18 16 16 16 17 19 20 19 20 22 25 28 29 29 19
64 42 40 45 43 44 41 41 56 60 59 51 42 42 47 52 54 51 46 45 44 41 53 61 56 60 63 73 69 62 51 36 26 25 25 19 18 22 21 20 21 22 24 27 30 31 29
86 90 67 49 49 33 34 51 67 63 59 52 41 42 46 48 50 47 47 47 46 44 46 62 65 64 62 73 72 75 79 63 49 41 34 26 24 24 23 24 23 25 25 28 30 34 32
89 70 46 36 29 26 43 65 61 54 51 48 43 38 34 32 39 38 41 42 45 41 38 57 61 52 63 61 72 80 82 82 73 69 59 38 31 29 27 27 26 26 26 28 29 33 35
59 48 42 26 44 66 65 59 58 53 48 35 18 8 4 4 7 8 8 10 10 12 12 15 19 38 58 66 70 78 85 89 83 85 98 77 54 37 32 31 30 29 28 30 31 33 37
32 27 28 39 65 70 64 50 26 18 9 3 3 3 4 5 5 6 5 5 4 4 3 4 5 6 10 33 60 70 77 72 78 77 79 86 84 92 83 36 34 34 32 32 32 33 36
54 45 72 68 73 66 42 13 2 2 2 3 4 6 7 8 8 9 10 10 10 8 7 7 7 7 6 5 5 9 30 52 72 72 71 82 91 94 96 78 77 81 46 35 33 34 38
61 61 59 49 35 13 3 3 3 4 5 6 7 8 9 9 11 13 15 16 14 12 13 12 12 12 11 10 6 4 4 4 10 35 60 77 79 92 97 94 78 70 47 42 38 35 40
40 31 13 6 4 4 6 8 10 12 15 17 19 19 20 20 21 22 23 22 18 18 21 22 21 21 20 18 15 10 8 6 4 4 5 20 58 89 89 95 99 93 84 45 38 41 50
13 14 16 17 17 17 17 16 15 13 12 12 12 13 13 17 17 18 16 13 14 19 22 24 23 21 21 24 22 19 16 13 9 7 6 5 8 41 82 100 98 88 78 61 69 66 62
18 16 14 12 12 11 10 10 10 9 10 10 11 12 15 18 20 21 19 15 17 20 20 20 18 18 16 18 22 24 22 18 16 13 10 9 8 8 20 64 96 100 100 95 87 80 76
15 14 13 13 12 12 12 12 12 12 12 13 14 15 16 17 18 18 18 17 17 16 14 15 16 16 16 17 18 18 17 20 23 23 22 16 12 10 11 10 38 72 84 100 100 97 92
12 12 11 9 8 7 6 8 9 9 9 11 14 16 14 13 12 10 9 9 8 9 8 8 7 7 8 10 10 11 12 14 19 21 42 26 24 19 13 13 19 32 31 71 81 80 84
4 5 4 5 6 7 9 12 14 15 15 15 13 10 8 7 6 5 4 4 3 3 3 3 4 4 5 5 6 6 6 8 12 26 33 56 54 28 22 19 14 10 9 15 26 59 81
5 6 7 8 9 9 8 8 7 6 5 4 4 4 3 3 3 3 3 3 3 3 3 3 3 3 3 3 6 5 4 4 16 25 22 61 72 52 24 23 24 27 23 23 29 33 35
6 8 7 6 4 3 3 2 3 3 3 3 3 3 3 3 4 4 4 4 5 5 7 7 7 8 13 11 9 25 17 5 7 19 44 47 94 63 31 29 36 28 24 24 28 28 46
6 6 3 2 2 2 3 3 4 4 4 4 5 5 6 5 5 6 12 19 16 10 13 18 22 19 30 66 73 88 94 41 15 99 53 85 70 83 54 40 58 55 47 38 67 100 85
3 2 2 2 3 3 4 4 5 6 7 10 14 14 14 19 23 27 49 52 41 39 59 47 35 32 41 40 34 60 97 100 91 81 100 100 100 100 96 88 100 100 59 100 84 100 100
2 2 3 3 4 4 6 10 12 13 14 15 28 26 30 39 80 94 89 96 100 97 82 84 71 61 41 37 38 33 27 83 100 99 70 53 91 100 98 100 100 100 96 87 100 100 94
3 3 4 4 8 12 12 11 12 14 18 20 47 63 67 57 100 100 100 100 100 100 100 96 85 71 52 34 25 20 20 23 37 100 100 100 100 100 100 100 100 100 100 100 100 97 84
4 4 5 8 13 13 13 12 14 17 22 24 37 52 88 99 100 100 98 98 97 100 100 100 97 71 55 39 38 33 29 24 20 95 100 100 99 100 100 100 100 100 100 100 100 100 100
5 5 6 11 15 15 14 13 15 21 27 28 31 70 99 100 90 97 100 97 83 79 82 97 78 61 53 50 53 74 78 88 81 56 36 84 97 100 100 100 100 98 100 94 100 100 100
6 6 7 12 17 17 15 13 18 27 28 32 42 75 100 92 100 100 100 98 100 97 100 100 81 68 54 50 93 100 100 100 100 100 100 88 99 100 100 100 100 95 90 100 100 100 100
8 7 8 12 18 18 13 14 22 28 30 32 51 73 95 100 93 94 100 100 100 99 99 95 84 68 58 59 100 100 100 100 100 100 100 100 100 100 100 100 100 100 100 100 100 100 99

GFSGBSN_500_rhum_252.txt.gz
RH
75 77 68 63 67 61 57 46 37 32 21 19 15 9 7 7 7 9 14 18 17 18 26 36 32 20 10 7 7 9 9 10 10 12 12 12 11 9 8 7 6 7 8 10 18 20 19
73 71 75 74 70 74 74 47 35 32 27 16 10 8 7 7 7 8 11 14 18 21 22 22 24 33 40 35 14 8 8 10 11 11 11 12 12 12 11 10 8 7 7 8 16 21 21
37 62 63 57 52 49 44 34 30 29 26 19 14 14 16 17 18 16 13 16 20 24 28 34 33 33 39 42 42 29 13 9 8 9 10 11 11 10 12 12 11 10 8 8 14 21 23
39 55 53 49 45 44 44 44 41 28 21 16 19 25 25 26 28 32 24 25 33 34 34 33 35 35 39 41 40 46 36 22 14 12 11 11 13 11 12 12 12 11 10 10 15 21 24
90 68 55 50 51 44 37 41 44 42 35 33 32 32 34 38 39 39 36 32 32 35 38 36 32 33 42 47 47 50 50 41 26 19 16 15 13 13 14 14 14 13 12 11 14 18 24
90 83 79 65 74 48 49 39 44 43 42 39 35 39 46 44 38 33 34 36 36 35 38 38 35 38 39 52 53 55 56 51 46 36 26 21 19 17 17 16 16 15 16 14 16 19 22
93 84 79 81 78 83 82 63 57 50 26 33 45 56 54 49 45 39 34 32 33 34 36 38 36 38 39 52 58 61 66 66 62 55 48 38 31 24 23 20 19 19 18 17 19 20 22
85 87 89 85 83 68 50 44 33 25 42 50 55 52 49 48 43 36 30 28 27 27 27 39 40 39 46 50 54 65 66 66 66 70 70 60 50 34 32 31 24 22 21 21 20 21 21
68 62 59 54 46 42 38 32 29 52 64 58 48 38 35 31 16 8 5 4 6 5 6 22 26 26 39 34 44 59 66 72 69 70 79 68 62 62 55 43 30 28 25 25 23 24 24
59 45 35 35 34 25 34 54 63 65 65 50 26 12 8 3 3 3 4 4 4 4 3 3 4 4 6 13 17 45 58 67 64 72 80 62 69 76 79 68 48 36 32 28 27 26 27
68 74 68 61 58 60 63 58 50 43 25 8 2 2 2 3 4 5 5 6 7 8 6 6 6 7 7 6 7 10 20 41 67 74 69 67 71 77 73 94 90 78 50 39 35 31 30
93 78 56 48 40 32 22 12 7 4 3 3 3 4 5 5 6 7 8 9 11 10 9 10 11 11 11 11 10 9 7 6 11 12 16 49 51 60 71 87 94 96 97 90 59 39 43
94 79 40 22 14 15 16 16 16 15 15 15 16 16 16 16 17 18 18 18 19 16 17 16 18 19 18 19 18 17 14 12 8 6 5 14 20 31 54 74 83 91 97 97 83 70 69
42 24 18 18 18 17 15 14 13 12 12 11 11 11 12 12 12 12 13 13 12 12 16 19 21 20 20 23 24 23 21 19 16 12 10 7 7 14 47 61 83 82 88 94 85 74 72
20 19 17 13 10 8 6 6 5 5 6 6 8 10 11 12 13 14 16 14 14 16 18 18 17 17 16 18 22 23 23 22 22 20 16 11 8 6 6 15 55 67 66 95 88 86 82
10 5 4 3 3 3 3 3 3 3 3 3 4 6 8 10 14 17 18 17 18 19 20 19 19 18 16 17 18 19 19 18 24 27 25 19 16 12 9 8 12 19 75 76 70 66 66
5 5 5 4 4 3 3 3 3 3 4 4 4 6 6 8 10 11 12 12 13 15 16 16 17 17 17 17 17 17 17 18 21 21 25 26 24 18 16 12 8 13 28 78 96 84 76
6 6 6 5 4 4 3 3 3 3 3 3 3 3 4 4 4 4 5 6 8 8 7 7 8 10 12 11 12 11 12 11 12 15 19 31 28 22 22 20 18 16 17 42 56 80 100
7 6 6 5 4 3 3 3 2 2 2 2 2 2 2 2 2 3 4 4 4 3 4 4 4 5 5 6 7 7 7 7 7 8 18 59 60 35 23 26 23 20 16 16 24 51 50
8 6 4 4 3 3 2 2 2 2 2 3 3 3 3 3 3 4 5 7 8 7 6 5 5 7 6 5 6 6 10 13 11 19 24 23 45 47 92 61 46 36 25 24 24 28 22
6 5 4 3 2 2 2 3 3 3 4 4 4 5 5 6 8 8 8 14 18 23 33 18 16 13 14 22 21 54 14 12 24 20 30 48 27 34 54 48 47 42 38 42 47 45 67
6 5 3 2 3 3 3 4 5 6 8 10 10 9 10 11 14 15 29 34 38 42 39 40 42 46 42 36 28 19 55 65 65 100 100 100 100 84 53 92 76 90 88 62 96 100 83
4 3 2 4 4 5 5 5 8 12 12 11 15 14 13 26 22 31 61 58 76 100 100 88 78 69 67 50 35 29 37 40 51 91 100 97 100 78 67 100 100 100 100 100 100 100 97
3 3 4 5 6 6 6 8 13 14 14 14 17 19 18 25 37 68 85 100 99 100 99 100 100 98 76 62 48 35 31 25 38 69 100 100 100 100 100 95 87 94 100 100 96 100 95
4 5 6 8 8 7 7 9 14 15 13 17 22 26 26 25 51 94 100 100 100 97 100 100 100 100 90 75 46 28 25 18 18 22 64 100 100 100 100 100 100 100 91 88 100 100 100
6 7 7 10 11 8 8 12 15 12 15 20 26 31 32 31 70 87 100 100 87 99 99 99 100 100 87 70 49 37 36 40 49 35 15 21 73 99 100 100 100 95 100 100 88 83 71
8 8 8 10 13 10 9 13 14 14 17 23 29 35 47 63 88 94 100 100 93 89 99 93 100 100 93 72 52 60 83 100 98 99 83 88 82 98 100 100 85 74 93 100 100 100 100
10 10 9 11 16 14 11 14 16 16 22 25 30 35 44 74 89 97 100 100 100 100 93 93 81 85 74 64 53 97 100 100 100 100 100 100 100 100 100 100 100 100 100 100 99 100 100
13 15 12 12 15 18 15 14 18 17 20 29 33 34 51 91 83 99 100 100 100 100 100 100 97 87 72 61 56 81 100 100 100 100 98 100 99 100 100 100 100 100 97 100 100 100 99

GFSGBSN_500_rhum_258.txt.gz
RH
69 72 51 30 24 29 33 60 75 77 74 75 72 55 41 34 32 29 25 21 16 12 10 9 10 10 11 14 14 16 25 30 25 13 8 7 8 9 9 9 8 10 11 11 11 10 9
69 66 67 73 71 66 57 50 58 56 55 51 48 44 41 36 35 34 25 20 17 17 18 19 19 19 18 19 19 23 25 24 21 29 35 25 12 8 7 9 9 10 10 11 11 11 11
75 69 68 71 72 77 83 80 71 60 51 52 54 46 42 41 40 39 35 33 33 30 30 31 30 31 32 29 27 30 31 29 30 31 30 30 34 25 15 11 9 9 10 10 12 11 11
85 76 72 70 70 77 84 81 76 76 69 58 66 61 50 63 63 48 46 49 46 40 34 35 38 36 34 36 34 32 35 36 35 36 36 36 38 40 35 25 20 13 10 8 9 9 9
78 81 75 78 70 72 85 86 79 71 74 76 74 73 68 65 63 55 48 41 26 22 22 26 27 31 34 32 34 34 38 38 36 38 36 36 32 36 38 35 27 20 21 14 12 12 11
73 80 89 83 74 78 93 82 67 58 61 67 60 51 45 40 34 33 29 30 32 29 30 34 33 34 31 31 32 32 30 31 32 36 38 39 38 34 43 48 37 30 28 24 18 17 17
79 84 91 85 81 80 62 46 41 37 35 39 33 28 28 31 35 34 35 34 41 35 39 39 34 31 31 32 32 32 31 27 29 32 43 46 41 40 63 55 45 42 38 33 27 23 26
86 87 88 95 94 84 75 81 81 77 72 62 52 51 53 56 53 53 52 50 46 38 34 30 28 25 20 20 21 25 30 33 38 42 50 44 35 75 70 63 59 52 47 44 41 38 35
83 91 100 98 97 91 91 86 91 80 62 44 39 22 17 13 18 17 18 15 12 12 17 18 7 9 6 6 5 5 7 12 18 30 45 53 49 74 78 75 67 67 63 66 58 48 41
89 81 74 75 78 89 85 78 63 50 29 20 18 17 16 16 16 15 15 15 14 13 12 12 9 7 5 5 5 5 5 4 4 5 23 31 42 55 70 79 84 70 81 75 68 59 50
72 68 66 50 37 25 23 22 20 19 18 12 7 5 4 4 3 3 3 4 5 8 11 11 11 12 11 10 8 8 8 8 8 12 20 20 27 49 53 72 92 65 82 73 67 61 49
52 35 23 20 20 20 20 17 11 6 4 4 5 5 5 5 4 3 3 3 3 3 2 4 5 8 10 12 13 14 14 12 11 10 9 8 8 9 16 61 78 76 77 84 75 63 45
20 20 20 19 16 12 8 6 5 5 5 5 6 6 6 5 4 3 3 2 3 2 2 2 2 3 4 8 12 14 15 16 20 18 14 15 13 12 13 17 34 52 64 66 54 45 28
19 17 16 14 9 6 5 5 6 8 8 7 6 5 4 4 3 3 2 2 2 2 2 2 2 3 3 6 9 13 14 14 15 17 18 22 19 16 16 14 23 27 34 24 21 13 8
14 12 10 8 6 6 6 8 10 10 7 6 5 4 4 4 3 2 2 2 2 2 2 2 2 3 5 6 8 12 16 18 19 19 19 18 18 22 23 21 21 24 21 42 36 20 9
9 9 7 6 7 8 10 11 8 6 6 5 4 4 3 2 2 2 2 2 2 2 2 2 2 3 4 7 9 11 16 19 20 20 20 19 15 17 21 24 23 19 22 32 31 22 15
8 7 7 8 10 11 10 8 7 6 6 5 3 2 2 2 2 2 2 3 3 3 3 3 3 2 3 5 7 10 19 23 32 28 28 26 25 20 22 19 23 22 17 14 14 17 18
10 10 10 12 11 10 9 8 6 6 4 3 2 2 2 3 4 4 5 5 6 5 7 6 6 5 6 6 8 11 18 17 20 26 36 41 28 22 20 23 27 28 28 28 22 15 12
14 14 12 12 11 9 8 6 4 3 3 2 3 4 5 6 6 6 8 9 11 14 32 34 38 50 42 23 14 19 45 90 100 100 100 100 57 32 24 26 26 26 29 32 32 26 20
14 13 13 12 10 8 5 4 3 4 4 6 6 6 7 8 8 9 10 15 16 18 17 32 97 100 100 100 100 98 91 63 98 100 100 100 100 100 90 74 73 54 57 73 71 42 29
15 15 13 11 8 4 4 4 5 7 9 10 8 9 9 10 11 13 14 17 21 27 32 30 33 48 81 100 100 100 100 100 99 96 100 100 100 100 100 100 100 100 99 88 100 97 100
16 14 12 8 4 4 5 6 8 11 14 11 10 11 11 15 15 17 22 26 28 33 38 57 56 66 66 56 57 62 83 100 100 100 85 94 100 100 97 100 100 100 100 100 85 92 100
14 13 8 4 5 7 8 9 14 17 17 12 12 14 15 18 20 22 28 27 28 32 60 66 74 82 94 88 87 84 76 63 44 48 65 94 65 88 95 100 99 100 100 100 100 100 100
13 9 5 5 7 9 11 15 20 25 21 16 14 16 16 19 26 29 29 34 30 56 80 100 98 90 86 89 88 90 73 65 53 47 44 42 80 98 60 58 90 98 94 100 100 100 100
10 6 4 6 9 12 15 20 25 32 34 25 18 20 19 20 27 35 38 40 61 80 82 97 99 81 73 85 90 87 85 54 40 33 29 28 31 32 58 86 73 77 78 99 99 100 100
7 5 6 8 12 15 20 23 25 34 47 47 29 21 22 23 28 30 33 54 87 100 62 86 98 68 66 80 76 77 69 54 81 100 89 56 41 28 28 32 66 100 90 77 96 100 100
5 6 7 11 13 16 20 23 25 37 47 64 51 29 25 26 29 29 34 62 90 100 99 94 99 80 79 81 94 86 77 65 51 85 100 100 100 83 50 62 84 66 99 99 89 89 97
5 7 9 13 14 16 19 22 26 36 54 68 80 49 31 28 31 32 34 53 84 97 100 100 100 100 100 97 98 94 86 65 53 66 100 97 98 100 100 100 100 100 100 99 100 99 91
6 8 13 15 16 16 18 24 30 34 61 71 92 76 47 33 32 35 38 42 66 85 100 99 100 100 100 100 100 100 93 70 55 74 99 100 100 100 100 100 100 100 100 100 100 100 100

GFSGBSN_500_rhum_261.txt.gz
RH
66 66 63 62 63 63 66 68 65 67 49 45 55 65 67 59 50 46 40 36 33 31 25 20 18 15 12 13 14 10 11 12 15 24 30 21 12 9 8 8 8 9 8 8 9 10 10
74 72 70 69 65 58 56 62 70 75 79 77 67 58 48 46 43 43 39 37 35 35 31 27 28 23 20 22 19 18 18 16 16 18 20 25 30 28 22 13 10 9 9 9 9 10 9
66 63 62 61 62 65 65 64 64 70 83 82 74 73 71 60 61 64 52 50 60 52 42 41 43 43 34 34 30 32 31 28 25 24 26 26 28 29 28 29 25 19 11 9 10 10 10
62 60 57 57 61 69 72 72 70 69 77 87 84 71 67 70 73 72 68 64 62 62 56 49 41 31 32 37 39 36 34 33 31 30 30 31 30 30 30 34 32 32 27 20 14 12 10
57 53 52 56 68 81 84 76 73 79 87 74 62 51 52 61 62 59 53 44 40 41 37 31 29 26 30 35 39 36 37 35 32 32 33 35 35 33 32 33 34 39 36 33 25 21 18
50 50 56 62 71 72 73 84 82 63 53 59 59 50 41 37 32 31 29 28 29 31 30 32 34 37 34 36 37 37 36 34 34 34 31 32 32 28 30 44 39 41 32 31 38 31 25
53 42 45 56 62 74 81 86 88 81 82 77 75 75 77 58 55 36 36 39 40 39 43 41 38 37 38 36 37 35 32 30 31 31 33 36 30 24 56 51 39 37 34 33 43 40 34
45 41 47 55 60 58 63 69 72 84 79 74 74 78 58 25 24 27 24 17 16 18 22 20 19 23 17 20 26 18 18 18 20 22 27 28 25 44 46 50 49 46 43 43 54 51 42
40 43 48 49 50 48 42 37 31 26 26 26 24 21 19 16 14 12 10 9 9 8 11 15 12 14 11 10 10 9 6 6 6 6 7 11 19 32 42 53 52 61 60 65 70 60 48
38 39 37 31 23 19 19 19 19 19 19 18 16 12 7 5 5 5 5 5 5 4 4 6 5 5 7 10 13 12 10 6 5 5 4 4 4 7 34 53 70 64 81 81 79 72 61
19 17 17 17 16 16 14 14 14 13 9 6 5 5 6 6 8 7 6 6 6 6 5 4 3 3 3 3 4 6 12 12 9 7 7 8 8 6 8 29 67 63 76 78 70 74 68
16 14 12 12 12 12 11 11 9 7 6 6 6 6 7 8 9 8 7 7 6 5 5 4 4 4 4 3 3 3 4 7 14 14 10 9 8 8 15 29 41 53 55 71 81 85 61
14 14 13 12 10 8 7 7 7 6 6 8 10 11 10 8 7 6 6 5 5 5 5 5 4 3 3 2 2 3 4 6 9 13 13 17 17 14 12 12 11 10 12 38 65 62 48
14 13 11 10 9 9 8 8 8 10 12 12 12 12 11 10 10 9 7 5 4 4 4 4 3 2 2 2 2 3 3 5 10 13 12 14 13 17 17 17 16 17 19 30 48 41 39
11 9 9 10 11 12 13 13 13 13 12 12 10 8 8 6 6 5 4 3 3 2 2 2 2 2 2 2 2 3 5 10 14 17 16 12 10 14 16 20 26 23 16 28 26 20 17
7 8 9 11 12 13 14 14 14 12 10 9 8 7 6 5 4 3 3 2 3 2 2 2 2 3 3 3 4 4 13 15 20 25 26 24 17 19 22 21 22 21 23 26 23 21 18
10 12 13 15 16 18 17 14 11 9 8 8 6 5 4 3 3 3 4 4 5 5 5 6 7 6 6 5 7 12 29 39 66 42 38 36 35 26 33 22 24 24 23 25 26 26 24
12 12 13 16 20 16 13 11 10 9 7 5 4 4 4 4 4 5 7 8 8 9 10 13 20 21 21 15 10 15 47 87 79 100 100 96 51 34 35 30 48 61 44 47 39 29 26
13 14 16 18 16 14 12 10 9 7 5 5 5 7 8 6 6 9 9 11 10 12 16 18 24 36 45 58 51 46 27 36 100 100 100 100 100 100 77 98 98 95 65 54 84 40 30
14 16 18 17 15 13 11 9 7 5 7 7 8 9 12 9 10 11 12 15 15 22 22 27 28 27 31 56 100 97 99 98 50 96 100 100 100 100 97 100 100 93 90 98 90 97 52
16 19 19 16 14 12 9 6 6 8 9 11 13 17 20 12 14 14 15 17 23 23 26 31 40 46 46 46 56 60 100 100 100 97 70 100 100 99 99 100 100 100 100 82 82 100 100
19 21 20 17 13 9 6 7 9 11 13 16 20 28 26 18 16 16 19 23 25 26 27 44 51 74 71 76 78 79 78 71 98 100 99 92 95 100 100 100 100 100 100 100 100 95 100
22 22 19 15 9 6 7 11 13 14 17 20 24 34 33 28 16 18 20 25 29 27 35 51 67 85 92 95 87 90 96 92 66 59 91 100 86 75 96 100 100 100 100 100 100 100 100
25 23 18 12 7 7 11 14 16 18 19 22 26 37 43 46 24 21 22 24 27 35 40 82 85 100 100 73 87 88 99 95 80 58 46 42 51 76 63 76 100 99 100 100 100 100 100
27 23 16 8 6 9 14 16 18 20 22 24 30 43 55 66 43 25 26 26 29 42 79 79 78 99 98 65 60 72 91 99 62 58 50 36 32 32 33 41 54 86 98 100 100 100 100
29 22 13 7 8 12 16 18 22 24 25 27 31 43 64 75 66 34 26 28 30 49 100 87 79 80 96 68 57 67 71 70 64 59 100 88 91 66 39 33 33 26 41 80 100 100 100
29 20 9 7 10 15 19 21 25 27 28 30 34 41 76 80 89 55 32 32 35 37 92 92 100 100 96 78 67 56 78 78 70 62 54 89 93 92 100 68 40 33 38 52 74 96 97
26 14 7 9 13 19 20 21 24 29 32 35 40 48 66 94 93 79 44 36 40 40 42 71 89 93 92 90 100 92 60 86 67 64 55 55 94 98 99 100 100 88 75 57 60 71 74
22 10 8 12 18 21 23 24 24 23 32 39 44 54 62 99 98 93 65 44 43 48 48 54 67 100 100 100 100 100 98 88 78 71 62 68 99 99 100 99 100 96 100 100 100 88 95